DW8086 Weather Reports


time (UTC)temp
C
wind
direction
speed
KPH
gust
KPH
rain 1hr
cm
rain 24hr
cm
rain mn
cm
humidity
%
barometer
mb
20260507060515 13 248 1.6 3.2 0.00 0.00 0.00 92 1010.3
20260507055536 13 293 1.6 4.8 0.00 0.00 0.00 92 1009.0
20260507054515 13 0.0 0.0 0.00 0.00 0.00 92 1008.9
20260507053515 13 0.0 0.0 0.00 0.00 0.00 92 1008.9
20260507052536 13 0.0 0.0 0.00 0.00 0.00 91 1009.1
20260507051516 13 0.0 0.0 0.00 0.00 0.00 91 1008.7
20260507050516 13 0.0 0.0 0.00 0.00 0.00 91 1008.7
20260507045515 13 0.0 0.0 0.00 0.00 0.00 90 1009.0
20260507044515 14 0.0 0.0 0.00 0.00 0.00 90 1009.1
20260507043516 14 0.0 1.6 0.00 0.00 0.00 90 1009.3
20260507042516 15 0.0 0.0 0.00 0.00 0.00 90 1009.1
20260507041516 16 0.0 6.4 0.00 0.00 0.00 89 1009.1
20260507040516 17 0.0 1.6 0.00 0.00 0.00 91 1009.2
20260507035516 17 0.0 0.0 0.00 0.00 0.00 90 1009.2
20260507034516 18 293 1.6 6.4 0.00 0.00 0.00 89 1008.9
20260507033516 18 225 1.6 4.8 0.00 0.00 0.00 86 1008.8
20260507032516 18 0.0 1.6 0.00 0.00 0.00 85 1008.5
20260507031516 18 0.0 3.2 0.00 0.00 0.00 85 1008.5
20260507030516 19 225 1.6 6.4 0.00 0.00 0.00 85 1008.6
20260507025536 19 225 3.2 6.4 0.00 0.00 0.00 84 1008.6
20260507024536 19 225 1.6 3.2 0.00 0.00 0.00 84 1008.5
20260507023516 19 180 4.8 6.4 0.00 0.00 0.00 84 1008.5
20260507022516 19 203 1.6 4.8 0.00 0.00 0.00 83 1008.5
20260507021517 19 180 3.2 6.4 0.00 0.00 0.00 83 1008.6
20260507020516 19 225 4.8 9.7 0.00 0.00 0.00 83 1009.0
20260507015516 19 180 3.2 6.4 0.00 0.00 0.00 82 1008.9
20260507014537 19 203 4.8 11.3 0.00 0.00 0.00 82 1008.9
20260507013516 20 203 1.6 4.8 0.00 0.00 0.00 81 1008.8
20260507012516 20 180 1.6 3.2 0.00 0.00 0.00 81 1009.0
20260507011617 20 180 4.8 9.7 0.00 0.00 0.00 81 1009.0
20260507010516 20 203 1.6 3.2 0.00 0.00 0.00 81 1008.5
20260507005516 20 203 1.6 3.2 0.00 0.00 0.00 81 1008.4
20260507004516 20 203 1.6 4.8 0.00 0.00 0.00 80 1008.4
20260507003516 20 203 1.6 1.6 0.00 0.00 0.00 80 1008.3
20260507002516 20 0.0 0.0 0.00 0.00 0.00 79 1008.3
20260507001517 20 203 1.6 4.8 0.00 0.00 0.00 78 1008.3
20260507000517 20 0.0 3.2 0.00 0.00 0.00 78 1008.3
20260506235516 20 248 1.6 4.8 0.00 0.00 0.00 78 1008.3
20260506234557 20 203 8.0 11.3 0.00 0.00 0.00 77 1008.1
20260506233516 20 225 3.2 6.4 0.00 0.00 0.00 77 1007.9
20260506232516 20 0.0 3.2 0.00 0.00 0.00 77 1008.0
20260506231516 21 225 8.0 11.3 0.00 0.00 0.00 76 1007.7
20260506230516 21 225 8.0 12.9 0.00 0.00 0.00 77 1007.9
20260506225537 21 225 6.4 9.7 0.00 0.00 0.00 77 1007.9
20260506224517 21 203 8.0 16.1 0.00 0.00 0.00 76 1007.9
20260506223516 21 203 12.9 22.5 0.00 0.00 0.00 76 1007.8
20260506222516 21 180 11.3 19.3 0.00 0.00 0.00 76 1007.8
20260506221537 21 180 3.2 11.3 0.00 0.00 0.00 76 1007.8
20260506220516 21 270 6.4 9.7 0.00 0.00 0.00 77 1007.8
20260506215516 20 270 6.4 9.7 0.00 0.00 0.00 77 1007.8
20260506214517 20 203 8.0 12.9 0.00 0.00 0.00 77 1007.8
20260506213516 20 203 6.4 12.9 0.00 0.00 0.00 77 1007.6
20260506212516 20 203 11.3 17.7 0.00 0.00 0.00 77 1007.5
20260506211516 20 180 6.4 9.7 0.00 0.00 0.00 77 1007.4
20260506210516 20 180 4.8 9.7 0.00 0.00 0.00 77 1007.2
20260506205536 20 203 4.8 9.7 0.00 0.00 0.00 78 1007.0
20260506204516 20 203 9.7 17.7 0.00 0.00 0.00 79 1007.2
20260506203517 20 180 6.4 9.7 0.00 0.00 0.00 79 1007.2
20260506202516 20 225 8.0 11.3 0.00 0.00 0.00 79 1007.3
20260506201516 19 180 6.4 11.3 0.00 0.00 0.00 80 1007.4
20260506200516 19 203 4.8 8.0 0.00 0.00 0.00 80 1007.5
20260506195516 19 225 6.4 11.3 0.00 0.00 0.00 81 1007.6
20260506194516 18 203 4.8 8.0 0.00 0.00 0.00 82 1007.7
20260506193517 18 248 4.8 8.0 0.00 0.00 0.00 83 1007.9
20260506192516 18 158 3.2 8.0 0.00 0.00 0.00 83 1007.9
20260506191516 18 203 8.0 12.9 0.00 0.00 0.00 82 1008.0
20260506190517 19 203 9.7 11.3 0.00 0.00 0.00 79 1008.0
20260506185517 19 203 8.0 12.9 0.00 0.00 0.00 78 1008.0
20260506184517 19 203 9.7 16.1 0.00 0.00 0.00 79 1008.1
20260506183517 19 225 9.7 16.1 0.00 0.00 0.00 77 1008.1
20260506182516 21 180 12.9 20.9 0.00 0.00 0.00 72 1008.1
20260506181517 21 203 9.7 14.5 0.00 0.00 0.00 69 1008.1
20260506180516 21 158 6.4 16.1 0.00 0.00 0.00 69 1008.1
20260506175516 21 158 11.3 20.9 0.00 0.00 0.00 68 1008.2
20260506174517 22 203 9.7 17.7 0.00 0.00 0.00 69 1008.4
20260506173536 22 180 8.0 22.5 0.00 0.00 0.00 68 1008.4
20260506172517 22 225 12.9 20.9 0.00 0.00 0.00 68 1008.4
20260506171517 22 180 12.9 29.0 0.00 0.00 0.00 69 1008.6
20260506170517 21 158 8.0 17.7 0.00 0.00 0.00 70 1008.7
20260506165517 21 203 3.2 8.0 0.00 0.00 0.00 70 1009.0
20260506164516 21 203 6.4 11.3 0.00 0.00 0.00 70 1009.4
20260506163517 21 225 11.3 24.1 0.00 0.00 0.00 70 1009.8
20260506162516 21 203 8.0 16.1 0.00 0.00 0.00 69 1009.9
20260506161517 21 225 6.4 11.3 0.00 0.00 0.00 67 1010.0
20260506160517 21 225 12.9 16.1 0.00 0.00 0.00 66 1010.0
20260506155516 22 180 8.0 16.1 0.00 0.00 0.00 64 1009.9
20260506154537 22 203 8.0 12.9 0.00 0.00 0.00 63 1009.9
20260506153537 22 203 12.9 20.9 0.00 0.00 0.00 62 1010.0
20260506152517 22 203 11.3 17.7 0.00 0.00 0.00 64 1010.0
20260506151516 22 203 8.0 16.1 0.00 0.00 0.00 63 1010.0
20260506150517 22 180 9.7 14.5 0.00 0.00 0.00 62 1010.1
20260506145517 22 203 14.5 27.4 0.00 0.00 0.00 62 1010.0
20260506144516 22 158 6.4 12.9 0.00 0.00 0.00 62 1009.8
20260506143517 22 180 8.0 12.9 0.00 0.00 0.00 63 1009.9
20260506142517 22 203 11.3 27.4 0.00 0.00 0.00 63 1010.0
20260506141517 22 203 4.8 11.3 0.00 0.00 0.00 65 1009.9
20260506140517 22 203 6.4 11.3 0.00 0.00 0.00 65 1009.7
20260506135517 22 180 4.8 8.0 0.00 0.00 0.00 66 1009.9
20260506134517 22 180 9.7 17.7 0.00 0.00 0.00 66 1010.0
20260506133517 21 203 9.7 19.3 0.00 0.00 0.00 66 1010.3
20260506132517 21 180 6.4 17.7 0.00 0.00 0.00 69 1010.3
20260506131516 21 203 8.0 11.3 0.00 0.00 0.00 70 1010.7
20260506130516 20 203 11.3 22.5 0.00 0.00 0.00 71 1010.5
20260506125517 20 158 11.3 20.9 0.00 0.00 0.00 73 1010.5
20260506124516 20 180 4.8 11.3 0.00 0.00 0.00 75 1010.5
20260506123517 18 180 11.3 16.1 0.00 0.00 0.00 76 1010.5
20260506122517 18 203 3.2 9.7 0.00 0.00 0.00 77 1010.5
20260506121517 18 180 8.0 14.5 0.00 0.00 0.00 77 1010.6
20260506120517 18 180 6.4 12.9 0.00 0.00 0.00 78 1010.6
20260506115517 18 203 11.3 17.7 0.00 0.00 0.00 78 1010.6
20260506114517 18 180 9.7 12.9 0.00 0.00 0.00 79 1010.8
20260506113517 17 180 8.0 12.9 0.00 0.00 0.00 81 1010.9
20260506112537 17 180 3.2 4.8 0.00 0.00 0.00 82 1010.9
20260506111537 17 203 4.8 8.0 0.00 0.00 0.00 83 1011.0
20260506110517 17 203 3.2 8.0 0.00 0.00 0.00 83 1010.9
20260506105517 16 203 4.8 9.7 0.00 0.00 0.00 84 1010.8
20260506104517 16 180 6.4 11.3 0.00 0.00 0.00 85 1010.7
20260506103517 16 203 6.4 11.3 0.00 0.00 0.00 85 1010.8
20260506102519 16 180 6.4 11.3 0.00 0.00 0.00 85 1010.8
20260506101517 16 180 4.8 12.9 0.00 0.00 0.00 85 1010.7
20260506100517 16 203 8.0 14.5 0.00 0.00 0.00 85 1010.6
20260506095537 16 180 1.6 6.4 0.00 0.00 0.00 85 1010.5
20260506094517 16 180 3.2 8.0 0.00 0.00 0.00 84 1010.5
20260506093517 16 225 4.8 12.9 0.00 0.00 0.00 84 1010.6
20260506092517 16 203 9.7 17.7 0.00 0.00 0.00 84 1010.6
20260506091517 17 180 8.0 12.9 0.00 0.00 0.00 84 1010.7
20260506090517 17 225 8.0 16.1 0.00 0.00 0.00 83 1010.7
20260506085517 17 158 9.7 17.7 0.00 0.00 0.00 83 1010.8
20260506084517 17 158 6.4 9.7 0.00 0.00 0.00 83 1010.7
20260506083537 17 225 4.8 12.9 0.00 0.00 0.00 83 1010.8
20260506082516 17 180 4.8 9.7 0.00 0.00 0.00 82 1010.9
20260506081517 17 203 6.4 9.7 0.00 0.00 0.00 82 1010.9
20260506080517 17 180 8.0 11.3 0.00 0.00 0.00 82 1010.8
20260506073517 17 180 4.8 8.0 0.00 0.00 0.00 81 1010.9
20260506072517 17 180 3.2 11.3 0.00 0.00 0.00 81 1011.1
20260506071517 17 180 3.2 6.4 0.00 0.00 0.00 81 1011.2
20260506070517 17 180 6.4 11.3 0.00 0.00 0.00 81 1011.3
20260506062517 17 203 4.8 6.4 0.00 0.00 0.00 80 1011.2
20260506061517 17 225 1.6 4.8 0.00 0.00 0.00 80 1011.3